Surface/Precipitation History
04/19/2019 18:30  to  4/20/2019 18:30
Change End Date:
To complete the export process:
1) Select all of the data below
2) Copy the data to the clipboard
3) Open a word processor such as Notepad
4) Paste the data into the word processor
5) Save the file

Date/Time (MDT), SfStatus, SfTemp, PvtTemp, SubTemp, FreezeTemp, ChemFactor, ChemPercent, WaterDepth, WaterDepthIceThickness, IcePercent, Conductivity, Salinity, FrictionIndex, PrecipType, PrecipIntensity, Accumulation, PrecipRate
04/20/2019 18:25, Wet, 56.7, , 55, 32, 5, 0, 9.5, , 0, 1, 50, , None, None, ,  
04/20/2019 18:22, Wet, 56.8, , 55, 32, 5, 0, 9.5, , 0, 1, 50, , None, None, ,  
04/20/2019 18:15, Wet, 57.9, , 55, 32, 5, 0, 9.5, , 0, 1, 49, , None, None, ,  
04/20/2019 18:07, Wet, 57, , 55, 32, 5, 0, 9.5, , 0, 1, 50, , None, None, ,  
04/20/2019 18:05, Wet, 57.2, , 55, 32, 5, 0, 9.5, , 0, 1, 50, , None, None, ,  
04/20/2019 17:55, Wet, 57, , 55, 32, 5, 0, 0, , 0, 0, 9, , None, None, ,  
04/20/2019 17:52, Wet, 57.6, , 55, 32, 5, 0, 0, , 0, 0, 13, , None, None, ,  
04/20/2019 17:45, Wet, 57.6, , 55, 32, 5, 0, 0.5, , 0, 1, 50, , None, None, ,  
04/20/2019 17:37, Wet, 57.7, , 55, 32, 5, 0, 9.5, , 0, 1, 49, , None, None, ,  
04/20/2019 17:35, Wet, 57.4, , 55, 32, 5, 0, 9.5, , 0, 1, 50, , None, None, ,  
04/20/2019 17:25, Wet, 56.3, , 55, 32, 5, 0, 9.5, , 0, 1, 50, , None, None, ,  
04/20/2019 17:22, Wet, 56.3, , 55, 32, 5, 0, 9.5, , 0, 1, 50, , None, None, ,  
04/20/2019 17:14, Wet, 56.8, , 55, 32, 20, 0, 9.5, , 0, 1, 50, , None, None, ,  
04/20/2019 17:07, Wet, 56.5, , 55, 32, 5, 0, 9.5, , 0, 1, 50, , None, None, ,  
04/20/2019 17:04, Wet, 56.5, , 55, 32, 5, 0, 9.5, , 0, 1, 50, , None, None, ,  
04/20/2019 16:54, Wet, 57, , 55, 32, 5, 0, , , 0, 1, 50, , Yes, , ,  
04/20/2019 16:52, Wet, 57, , 55, 32, 5, 0, 9.5, , 0, 1, 50, , None, None, ,  
04/20/2019 16:44, Wet, 56.3, , 55, 32, 5, 0, 9.5, , 0, 1, 50, , Yes, , ,  
04/20/2019 16:37, Wet, 55.6, , 55, 32, 5, 0, 9.5, , 0, 1, 51, , Yes, , ,  
04/20/2019 16:34, Wet, 55, , 55, 32, 5, 0, 9.5, , 0, 1, 51, , Yes, , ,  
04/20/2019 16:24, Wet, 55, , 55, 32, 5, 0, 9.5, , 0, 1, 51, , None, None, ,  
04/20/2019 16:22, Wet, 55.2, , 55, 32, 5, 0, 9.5, , 0, 1, 51, , Yes, , ,  
04/20/2019 16:14, Wet, 54.7, , 55, 32, 5, 0, 9.5, , 0, 1, 51, , Yes, , ,  
04/20/2019 16:07, Wet, 55, , 55, 32, 5, 0, 9.5, , 0, 1, 51, , Yes, , ,  
04/20/2019 16:04, Wet, 55.2, , 55, 32, 5, 0, 9.5, , 0, 1, 51, , Yes, , ,  
04/20/2019 15:54, Wet, 55.6, , 55, 32, 5, 0, 8.1, , 0, 1, 51, , Yes, , ,  
04/20/2019 15:52, Wet, 55.6, , 55, 32, 5, 0, 9.5, , 0, 1, 50, , Yes, , ,  
04/20/2019 15:44, Wet, 56.3, , 55, 32, 5, 0, 8.1, , 0, 1, 50, , Yes, , ,  
04/20/2019 15:37, Wet, 57, , 55, 32, 5, 0, 8.1, , 0, 1, 50, , Yes, , ,  
04/20/2019 15:34, Wet, 57.2, , 55, 32, 5, 0, 8.1, , 0, 1, 50, , Yes, , ,  
04/20/2019 15:24, Wet, 56.8, , 55, 32, 5, 0, 9.5, , 0, 1, 50, , Yes, , ,  
04/20/2019 15:22, Wet, 57, , 55, 32, 5, 0, 9.5, , 0, 1, 50, , Yes, , ,  
04/20/2019 15:14, Wet, 56.3, , 55, 32, 5, 0, 9.5, , 0, 1, 50, , Yes, , ,  
04/20/2019 15:07, Wet, 55.8, , 55, 32, 5, 0, 9.5, , 0, 1, 51, , Yes, , ,  
04/20/2019 15:04, Wet, 55.6, , 55, 32, 5, 0, , , 0, 1, 50, , Yes, , ,  
04/20/2019 14:54, Wet, 55.6, , 55, 32, 5, 0, 9.5, , 0, 1, 51, , Yes, , ,  
04/20/2019 14:52, Wet, 55.6, , 55, 32, 5, 0, 9.5, , 0, 1, 51, , Yes, , ,  
04/20/2019 14:44, Wet, 54.9, , 55, 32, 5, 0, 9.5, , 0, 1, 51, , Yes, , ,  
04/20/2019 14:37, Wet, 55, , 55, 32, 5, 0, 9.5, , 0, 1, 51, , Yes, , ,  
04/20/2019 14:34, Wet, 55, , 55, 32, 5, 0, 9.5, , 0, 1, 51, , Yes, , ,  
04/20/2019 14:24, Wet, 55.4, , 55, 32, 5, 0, 9.5, , 0, 1, 51, , Yes, , ,  
04/20/2019 14:22, Wet, 55.4, , 55, 32, 5, 0, 9.5, , 0, 1, 51, , Yes, , ,  
04/20/2019 14:14, Wet, 56.1, , 55, 32, 5, 0, 9.5, , 0, 1, 50, , Yes, , ,  
04/20/2019 14:07, Wet, 56.8, , 55, 32, 5, 0, 9.5, , 0, 1, 50, , Yes, , ,  
04/20/2019 14:04, Wet, 57.6, , 55, 32, 5, 0, 9.5, , 0, 1, 50, , Yes, , ,  
04/20/2019 13:54, Wet, 58.8, , 55, 32, 5, 0, 9.5, , 0, 1, 49, , Yes, , ,  
04/20/2019 13:52, Wet, 58.6, , 55, 32, 5, 0, 9.5, , 0, 1, 49, , Yes, , ,  
04/20/2019 13:44, Wet, 56.7, , 55, 32, 5, 0, 9.5, , 0, 1, 50, , Yes, , ,  
04/20/2019 13:37, Wet, 55.8, , 55, 32, 5, 0, 8.1, , 0, 1, 51, , Yes, , ,  
04/20/2019 13:34, Wet, 55.6, , 55, 32, 5, 0, 9.5, , 0, 1, 50, , Yes, , ,  
04/20/2019 13:23, Wet, 56.3, , 55, 32, 5, 0, 8.1, , 0, 1, 50, , Yes, , ,  
04/20/2019 13:22, Wet, 56.7, , 55, 32, 5, 0, 9.5, , 0, 1, 50, , Yes, , ,  
04/20/2019 13:13, Wet, 57, , 55, 32, 5, 0, 9.5, , 0, 1, 50, , Yes, , ,  
04/20/2019 13:07, Wet, 56.8, , 55, 32, 5, 0, 9.5, , 0, 1, 50, , Yes, , ,  
04/20/2019 13:03, Wet, 56.8, , 55, 32, 5, 0, 9.5, , 0, 1, 50, , Yes, , ,  
04/20/2019 12:53, Wet, 56.7, , 55, 32, 5, 0, 9.5, , 0, 1, 50, , Yes, , ,  
04/20/2019 12:52, Wet, 56.5, , 55, 32, 5, 0, 9.5, , 0, 1, 50, , Yes, , ,  
04/20/2019 12:43, Wet, 55.8, , 55, 32, 5, 0, 9.5, , 0, 1, 51, , Yes, , ,  
04/20/2019 12:37, Wet, 55.9, , 55, 32, 5, 0, 9.5, , 0, 1, 50, , Yes, , ,  
04/20/2019 12:33, Wet, 55.4, , 55, 32, 5, 0, 9.5, , 0, 1, 51, , Yes, , ,  
04/20/2019 12:23, Wet, 54.1, , 55, 32, 5, 0, 9.5, , 0, 1, 51, , Yes, , ,  
04/20/2019 12:22, Wet, 54.3, , 55, 32, 5, 0, 8.1, , 0, 1, 51, , Yes, , ,  
04/20/2019 12:13, Wet, 54.9, , 55, 32, 5, 0, 9.5, , 0, 1, 51, , Yes, , ,  
04/20/2019 12:07, Wet, 54.5, , 55, 32, 5, 0, 9.5, , 0, 1, 51, , Yes, , ,  
04/20/2019 12:03, Wet, 54.5, , 55, 32, 5, 0, 9.5, , 0, 1, 51, , Yes, , ,  
04/20/2019 11:53, Wet, 55.2, , 55, 32, 5, 0, 9.5, , 0, 1, 51, , Yes, , ,  
04/20/2019 11:52, Wet, 55.2, , 55, 32, 5, 0, 9.5, , 0, 1, 51, , Yes, , ,  
04/20/2019 11:43, Wet, 55, , 55, 32, 5, 0, 9.5, , 0, 1, 51, , Yes, , ,  
04/20/2019 11:37, Wet, 54.3, , 55, 32, 5, 0, 9.5, , 0, 1, 51, , Yes, , ,  
04/20/2019 11:33, Wet, 54, , 55, 32, 5, 0, 9.5, , 0, 1, 51, , Yes, , ,  
04/20/2019 11:23, Wet, 54.3, , 55, 32, 5, 0, 9.5, , 0, 1, 51, , Yes, , ,  
04/20/2019 11:22, Wet, 54.5, , 55, 32, 5, 0, 9.5, , 0, 1, 51, , Yes, , ,  
04/20/2019 11:13, Wet, 55.8, , 55, 32, 5, 0, 9.5, , 0, 1, 51, , Yes, , ,  
04/20/2019 11:07, Wet, 56.3, , 55, 32, 5, 0, 9.5, , 0, 1, 50, , Yes, , ,  
04/20/2019 11:03, Wet, 55.8, , 55, 32, 5, 0, 9.5, , 0, 1, 50, , Yes, , ,  
04/20/2019 10:53, Wet, 55.6, , 55, 32, 5, 0, 0, , 0, 1, 49, , Yes, , ,  
04/20/2019 10:52, Wet, 55.8, , 55, 32, 5, 0, 0, , 0, 1, 49, , Yes, , ,  
04/20/2019 10:43, Wet, 54.9, , 55, 32, 5, 0, 0, , 0, 1, 67, , Yes, , ,  
04/20/2019 10:37, Wet, 55, , 55, 32, 5, 0, 9.5, , 0, 1, 51, , Yes, , ,  
04/20/2019 10:33, Wet, 54.9, , 55, 32, 5, 0, 9.5, , 0, 1, 51, , Yes, , ,  
04/20/2019 10:23, Wet, 55.8, , 55, 32, 5, 0, 8.1, , 0, 1, 51, , Yes, , ,  
04/20/2019 10:22, Wet, 56.1, , 55, 32, 5, 0, 8.1, , 0, 1, 50, , Yes, , ,  
04/20/2019 10:13, Wet, 57.2, , 55, 32, 5, 0, 9.5, , 0, 1, 50, , Yes, , ,  
04/20/2019 10:07, Wet, 58.1, , 55, 32, 5, 0, 9.5, , 0, 1, 49, , Yes, , ,  
04/20/2019 10:03, Wet, 58.6, , 55, 32, 5, 0, 9.5, , 0, 1, 49, , Yes, , ,  
04/20/2019 09:53, Wet, 58.1, , 56, 32, 5, 0, 9.5, , 0, 1, 49, , Yes, , ,  
04/20/2019 09:52, Wet, 58.1, , 56, 32, 5, 0, 9.5, , 0, 1, 49, , Yes, , ,  
04/20/2019 09:42, Wet, 58.6, , 56, 32, 5, 0, 0, , 0, 0, 0, , Yes, , ,  
04/20/2019 09:37, Wet, 59.2, , 56, 32, 5, 0, 0, , 0, 1, 39, , Yes, , ,  
04/20/2019 09:32, Wet, 59.2, , 56, 32, 5, 0, 0, , 0, 0, 14, , None, None, ,  
04/20/2019 09:22, Wet, 59.2, , 56, 32, 5, 0, , , 0, 1, 49, , None, None, ,  
04/20/2019 09:22, Wet, 59.2, , 56, 32, 5, 0, , , 0, 1, 49, , None, None, ,  
04/20/2019 09:12, Wet, 59.9, , 56, 32, 5, 0, , , 0, 1, 48, , None, None, ,  
04/20/2019 09:07, Wet, 59, , 56, 32, 5, 0, 8.1, , 0, 1, 49, , None, None, ,  
04/20/2019 09:02, Wet, 58.6, , 56, 32, 5, 0, , , 0, 1, 49, , None, None, ,  
04/20/2019 08:52, Wet, 58.5, , 56, 32, 5, 0, 9.5, , 0, 1, 49, , None, None, ,  
04/20/2019 08:52, Wet, 58.5, , 56, 32, 5, 0, 9.5, , 0, 1, 49, , None, None, ,  
04/20/2019 08:42, Wet, 57, , 56, 32, 5, 0, 8.1, , 0, 1, 50, , None, None, ,  
04/20/2019 08:37, Wet, 57.2, , 56, 32, 5, 0, 9.5, , 0, 1, 50, , None, None, ,  
04/20/2019 08:32, Wet, 57.6, , 56, 32, 5, 0, , , 0, 1, 49, , None, None, ,  
04/20/2019 08:22, Wet, 57.9, , 56, 32, 5, 0, 9.5, , 0, 1, 49, , None, None, ,  
04/20/2019 08:22, Wet, 57.9, , 56, 32, 5, 0, 9.5, , 0, 1, 49, , None, None, ,  
04/20/2019 08:12, Wet, 57.9, , 56, 32, 5, 0, 9.5, , 0, 1, 49, , None, None, ,  
04/20/2019 08:07, Wet, 57.9, , 56, 32, 5, 0, 9.5, , 0, 1, 49, , None, None, ,  
04/20/2019 08:02, Wet, 58.5, , 56, 32, 5, 0, 9.5, , 0, 1, 49, , None, None, ,  
04/20/2019 07:52, Wet, 58.5, , 56, 32, 5, 0, 7.1, , 0, 1, 50, , None, None, ,  
04/20/2019 07:52, Wet, 58.5, , 56, 32, 5, 0, 7.1, , 0, 1, 50, , None, None, ,  
04/20/2019 07:42, Wet, 55.2, , 56, 32, 5, 0, 7, , 0, 1, 55, , None, None, ,  
04/20/2019 07:37, Wet, 54.7, , 56, 32, 5, 0, 9.5, , 0, 1, 55, , None, None, ,  
04/20/2019 07:32, Wet, 53.8, , 56, 32, 5, 0, , , 0, 1, 55, , None, None, ,  
04/20/2019 07:22, Wet, 53.4, , 56, 32, 5, 0, , , 0, 1, 55, , None, None, ,  
04/20/2019 07:22, Wet, 53.4, , 56, 32, 5, 0, , , 0, 1, 55, , None, None, ,  
04/20/2019 07:12, Wet, 52.9, , 56, 32, 5, 0, 8.1, , 0, 1, 52, , None, None, ,  
04/20/2019 07:07, Wet, 52.7, , 56, 32, 5, 0, 9.5, , 0, 1, 52, , None, None, ,  
04/20/2019 07:02, Wet, 52.5, , 56, 32, 5, 0, 0, , 0, 0, 7, , None, None, ,  
04/20/2019 06:52, Wet, 52.2, , 56, 32, 5, 0, 0, , 0, 0, 7, , None, None, ,  
04/20/2019 06:52, Wet, 52.2, , 56, 32, 5, 0, 0, , 0, 0, 7, , None, None, ,  
04/20/2019 06:42, Wet, 51.8, , 56, 32, 5, 0, 0, , 0, 0, 7, , None, None, ,  
04/20/2019 06:37, Wet, 51.6, , 56, 32, 5, 0, 0, , 0, 0, 7, , None, None, ,  
04/20/2019 06:32, Wet, 51.4, , 56, 32, 5, 0, 0, , 0, 0, 7, , None, None, ,  
04/20/2019 06:22, Wet, 51.1, , 56, 32, 5, 0, 0, , 0, 0, 7, , None, None, ,  
04/20/2019 06:22, Wet, 51.1, , 56, 32, 5, 0, 0, , 0, 0, 7, , None, None, ,  
04/20/2019 06:12, Wet, 50.5, , 56, 32, 5, 0, 0, , 0, 0, 0, , None, None, ,  
04/20/2019 06:07, Wet, 50.5, , 56, 32, 5, 0, 0, , 0, 0, 0, , None, None, ,  
04/20/2019 06:02, Wet, 50.4, , 56, 32, 5, 0, 0, , 0, 0, 0, , None, None, ,  
04/20/2019 05:52, Wet, 50.2, , 56, 32, 5, 0, 0, , 0, 0, 0, , None, None, ,  
04/20/2019 05:52, Wet, 50.2, , 56, 32, 5, 0, 0, , 0, 0, 0, , None, None, ,  
04/20/2019 05:41, Wet, 50.4, , 56, 32, 5, 0, 0, , 0, 0, 0, , None, None, ,  
04/20/2019 05:37, Wet, 50.4, , 56, 32, 5, 0, 0, , 0, 0, 0, , None, None, ,  
04/20/2019 05:31, Wet, 50.2, , 56, 32, 5, 0, 0, , 0, 0, 0, , None, None, ,  
04/20/2019 05:22, Wet, 50.2, , 56, 32, 5, 0, 0, , 0, 0, 0, , None, None, ,  
04/20/2019 05:21, Wet, 50.2, , 56, 32, 5, 0, 0, , 0, 0, 0, , None, None, ,  
04/20/2019 05:11, Wet, 49.8, , 56, 32, 5, 0, 0, , 0, 0, 0, , None, None, ,  
04/20/2019 05:07, Wet, 49.6, , 56, 32, 5, 0, 0, , 0, 0, 0, , None, None, ,  
04/20/2019 05:01, Wet, 49.6, , 56, 32, 5, 0, 0, , 0, 0, 0, , None, None, ,  
04/20/2019 04:52, Wet, 49.8, , 56, 32, 5, 0, 0, , 0, 0, 0, , None, None, ,  
04/20/2019 04:51, Wet, 49.8, , 56, 32, 5, 0, 0, , 0, 0, 0, , None, None, ,  
04/20/2019 04:41, Wet, 50, , 56, 32, 5, 0, 0, , 0, 0, 0, , None, None, ,  
04/20/2019 04:37, Wet, 50.2, , 56, 32, 5, 0, 0, , 0, 0, 8, , None, None, ,  
04/20/2019 04:31, Wet, 50.2, , 56, 32, 5, 0, 0, , 0, 0, 8, , None, None, ,  
04/20/2019 04:22, Wet, 50.4, , 56, 32, 5, 0, 0, , 0, 0, 8, , None, None, ,  
04/20/2019 04:21, Wet, 50.4, , 56, 32, 5, 0, 0, , 0, 0, 8, , None, None, ,  
04/20/2019 04:11, Wet, 50.7, , 56, 32, 5, 0, 0, , 0, 0, 7, , None, None, ,  
04/20/2019 04:07, Wet, 50.7, , 56, 32, 5, 0, 0, , 0, 0, 7, , None, None, ,  
04/20/2019 04:01, Wet, 50.9, , 56, 32, 5, 0, 0, , 0, 0, 7, , None, None, ,  
04/20/2019 03:52, Wet, 51.1, , 56, 32, 5, 0, 0, , 0, 0, 7, , None, None, ,  
04/20/2019 03:51, Wet, 51.1, , 56, 32, 5, 0, 0, , 0, 0, 7, , None, None, ,  
04/20/2019 03:41, Wet, 51.3, , 56, 32, 5, 0, 0, , 0, 0, 8, , None, None, ,  
04/20/2019 03:37, Wet, 51.4, , 56, 32, 5, 0, 0, , 0, 0, 8, , None, None, ,  
04/20/2019 03:31, Wet, 51.4, , 56, 32, 5, 0, 0, , 0, 0, 8, , None, None, ,  
04/20/2019 03:22, Wet, 51.8, , 56, 32, 5, 0, 0, , 0, 0, 7, , None, None, ,  
04/20/2019 03:21, Wet, 51.8, , 56, 32, 5, 0, 0, , 0, 0, 7, , None, None, ,  
04/20/2019 03:11, Wet, 52, , 56, 32, 5, 0, 0, , 0, 0, 7, , None, None, ,  
04/20/2019 03:07, Wet, 52, , 56, 32, 5, 0, 0, , 0, 0, 0, , None, None, ,  
04/20/2019 03:01, Wet, 52.3, , 56, 32, 5, 0, 0, , 0, 0, 0, , None, None, ,  
04/20/2019 02:52, Wet, 52.7, , 56, 32, 5, 0, 0, , 0, 0, 0, , None, None, ,  
04/20/2019 02:51, Wet, 52.7, , 56, 32, 5, 0, 0, , 0, 0, 0, , None, None, ,  
04/20/2019 02:41, Wet, 53.1, , 56, 32, 5, 0, 0, , 0, 0, 7, , None, None, ,  
04/20/2019 02:37, Wet, 53.1, , 56, 32, 5, 0, 0, , 0, 0, 7, , None, None, ,  
04/20/2019 02:31, Wet, 53.4, , 56, 32, 5, 0, 0, , 0, 0, 7, , None, None, ,  
04/20/2019 02:22, Wet, 53.6, , 56, 32, 5, 0, 0, , 0, 0, 7, , None, None, ,  
04/20/2019 02:21, Wet, 53.8, , 56, 32, 5, 0, 0, , 0, 0, 7, , None, None, ,  
04/20/2019 02:11, Wet, 54.1, , 56, 32, 5, 0, 0, , 0, 0, 7, , None, None, ,  
04/20/2019 02:07, Wet, 54.3, , 56, 32, 5, 0, 0, , 0, 0, 7, , None, None, ,  
04/20/2019 02:01, Wet, 54.7, , 56, 32, 5, 0, 0, , 0, 0, 7, , None, None, ,  
04/20/2019 01:52, Wet, 54.9, , 56, 32, 5, 0, 0, , 0, 0, 7, , None, None, ,  
04/20/2019 01:51, Wet, 54.9, , 56, 32, 5, 0, 0, , 0, 0, 8, , None, None, ,  
04/20/2019 01:40, Wet, 54.9, , 56, 32, 5, 0, 0, , 0, 0, 14, , None, None, ,  
04/20/2019 01:37, Wet, 54.5, , 56, 32, 5, 0, 9.5, , 0, 1, 51, , None, None, ,  
04/20/2019 01:30, Wet, 54, , 56, 32, 5, 0, 9.5, , 0, 1, 51, , None, None, ,  
04/20/2019 01:22, Wet, 53.4, , 56, 32, 5, 0, 9.5, , 0, 1, 52, , None, None, ,  
04/20/2019 01:20, Wet, 53.6, , 56, 32, 5, 0, 9.5, , 0, 1, 52, , None, None, ,  
04/20/2019 01:10, Wet, 54.3, , 56, 32, 5, 0, 9.5, , 0, 1, 51, , None, None, ,  
04/20/2019 01:07, Wet, 54.5, , 56, 32, 5, 0, 8.1, , 0, 1, 51, , None, None, ,  
04/20/2019 01:00, Wet, 55.4, , 55, 32, 5, 0, 9.5, , 0, 1, 51, , None, None, ,  
04/20/2019 00:52, Wet, 56.7, , 55, 32, 5, 0, 9.5, , 0, 1, 50, , Yes, , ,  
04/20/2019 00:50, Wet, 57, , 55, 32, 5, 0, 9.5, , 0, 1, 50, , Yes, , ,  
04/20/2019 00:40, Dry, 59.4, , 55, , , , , , , 1, 49, , None, None, ,  
04/20/2019 00:37, Dry, 59.5, , 55, , , , , , , 1, 48, , Yes, , ,  
04/20/2019 00:30, Dry, 59.4, , 55, , , , , , , 1, 49, , None, None, ,  
04/20/2019 00:22, Dry, 58.6, , 55, , , , , , , 1, 49, , None, None, ,  
04/20/2019 00:20, Wet, 58.6, , 55, 32, 5, 0, , , 0, 1, 49, , None, None, ,  
04/20/2019 00:10, Dry, 59, , 55, , , , , , , 1, 49, , None, None, ,  
04/20/2019 00:07, Dry, 59, , 55, , , , , , , 1, 49, , None, None, ,  
04/20/2019 00:00, Dry, 59, , 55, , , , , , , 1, 49, , None, None, ,  
04/19/2019 23:52, Dry, 59.4, , 55, , , , , , , 1, 49, , None, None, ,  
04/19/2019 23:50, Dry, 59.4, , 55, , , , , , , 1, 49, , None, None, ,  
04/19/2019 23:40, Dry, 59.5, , 55, , , , , , , 1, 49, , None, None, ,  
04/19/2019 23:37, Dry, 59.7, , 55, , , , , , , 1, 49, , None, None, ,  
04/19/2019 23:30, Dry, 60.1, , 55, , , , , , , 1, 48, , None, None, ,  
04/19/2019 23:22, Dry, 60.8, , 55, , , , , , , 0, 0, , None, None, ,  
04/19/2019 23:20, Dry, 61, , 55, , , , , , , 0, 0, , None, None, ,  
04/19/2019 23:10, Dry, 61.9, , 55, , , , , , , 0, 0, , None, None, ,  
04/19/2019 23:07, Dry, 62.2, , 55, , , , , , , 0, 0, , None, None, ,  
04/19/2019 23:00, Dry, 63, , 55, , , , , , , 0, 0, , None, None, ,  
04/19/2019 22:52, Dry, 63.3, , 55, , , , , , , 0, 0, , None, None, ,  
04/19/2019 22:50, Dry, 63.3, , 55, , , , , , , 0, 0, , None, None, ,  
04/19/2019 22:40, Dry, 63.3, , 55, , , , , , , 0, 0, , None, None, ,  
04/19/2019 22:37, Dry, 63.3, , 55, , , , , , , 0, 0, , None, None, ,  
04/19/2019 22:30, Dry, 63.3, , 55, , , , , , , 0, 0, , None, None, ,  
04/19/2019 22:22, Dry, 63.3, , 55, , , , , , , 0, 0, , None, None, ,  
04/19/2019 22:20, Dry, 63.3, , 55, , , , , , , 0, 0, , None, None, ,  
04/19/2019 22:10, Dry, 63.3, , 55, , , , , , , 0, 0, , None, None, ,  
04/19/2019 22:07, Dry, 63.3, , 55, , , , , , , 0, 0, , None, None, ,  
04/19/2019 22:00, Dry, 63.3, , 55, , , , , , , 0, 0, , None, None, ,  
04/19/2019 21:52, Dry, 62.8, , 55, , , , , , , 0, 0, , None, None, ,  
04/19/2019 21:50, Dry, 62.6, , 55, , , , , , , 0, 0, , None, None, ,  
04/19/2019 21:39, Dry, 62.8, , 54, , , , , , , 0, 0, , None, None, ,  
04/19/2019 21:37, Dry, 63, , 54, , , , , , , 0, 0, , None, None, ,  
04/19/2019 21:29, Dry, 63.3, , 54, , , , , , , 0, 0, , None, None, ,  
04/19/2019 21:22, Dry, 63.7, , 54, , , , , , , 0, 0, , None, None, ,  
04/19/2019 21:19, Dry, 63.9, , 54, , , , , , , 0, 12, , None, None, ,  
04/19/2019 21:09, Dry, 64.6, , 54, , , , , , , 1, 46, , None, None, ,  
04/19/2019 21:07, Dry, 64.6, , 54, , , , , , , 1, 46, , None, None, ,  
04/19/2019 20:59, Dry, 65.1, , 54, , , , , , , 1, 46, , None, None, ,  
04/19/2019 20:52, Dry, 65.7, , 54, , , , , , , 1, 46, , None, None, ,  
04/19/2019 20:49, Dry, 65.7, , 54, , , , , , , 1, 46, , None, None, ,  
04/19/2019 20:39, Wet, 66.4, , 54, 32, 5, 0, 9.5, , 0, 1, 45, , None, None, ,  
04/19/2019 20:37, Wet, 66.6, , 54, 32, 5, 0, 9.5, , 0, 1, 45, , None, None, ,  
04/19/2019 20:29, Wet, 67.8, , 54, 32, 5, 0, 8.1, , 0, 1, 45, , None, None, ,  
04/19/2019 20:22, Wet, 69.8, , 54, 32, 5, 0, 8.1, , 0, 1, 44, , Yes, , ,  
04/19/2019 20:19, Dry, 70.7, , 54, , , , , , , 1, 44, , Yes, , ,  
04/19/2019 20:09, Dry, 71.2, , 54, , , , , , , 1, 43, , None, None, ,  
04/19/2019 20:07, Dry, 71.4, , 54, , , , , , , 1, 43, , None, None, ,  
04/19/2019 19:59, Dry, 71.6, , 54, , , , , , , 1, 43, , None, None, ,  
04/19/2019 19:52, Dry, 71.8, , 54, , , , , , , 1, 43, , None, None, ,  
04/19/2019 19:49, Dry, 72, , 54, , , , , , , 1, 43, , None, None, ,  
04/19/2019 19:39, Dry, 72.3, , 54, , , , , , , 1, 43, , None, None, ,  
04/19/2019 19:37, Wet, 73, , 53, 32, 5, 0, 9.5, , 0, 1, 43, , Yes, , ,  
04/19/2019 19:29, Dry, 74.5, , 53, , , , , , , 1, 42, , None, None, ,  
04/19/2019 19:22, Dry, 75.4, , 53, , , , , , , 1, 42, , None, None, ,  
04/19/2019 19:19, Dry, 75.7, , 53, , , , , , , 1, 42, , None, None, ,  
04/19/2019 19:09, Dry, 77, , 53, , , , , , , 1, 41, , None, None, ,  
04/19/2019 19:07, Dry, 77.2, , 53, , , , , , , 1, 41, , None, None, ,  
04/19/2019 18:59, Dry, 79.2, , 53, , , , , , , 1, 41, , None, None, ,  
04/19/2019 18:52, Dry, 80.8, , 53, , , , , , , 1, 40, , None, None, ,  
04/19/2019 18:49, Dry, 81.5, , 53, , , , , , , 1, 40, , None, None, ,  
04/19/2019 18:39, Dry, 83.1, , 53, , , , , , , 1, 39, , None, None, ,  
04/19/2019 18:37, Dry, 83.3, , 53, , , , , , , 1, 39, , None, None, ,  
Change End Date:

Copyright © 1998-2015 Vaisala, Inc.
All Rights Reserved
Send comments about the data to:
SCAN Web ® is a registered trademark of Vaisala, Inc.
SCAN Web Version 6.0